Regional Weather Roundup
Issued by NWS

Home | Current Version | Previous Version | Graphics & Text | Print | Product List | Glossary On
Versions: 1 2 3 4 5 6 7 8 9 10 11 12 13 14 15 16 17 18 19 20 21 22 23 24 25 26 27 28 29 30 31 32 33 34 35 36 37 38 39 40 41 42 43 44 45 46 47 48 49 50
000
ASUS43 KLSX 250557
RWRMO

WEATHER SUMMARY FOR MISSOURI
NATIONAL WEATHER SERVICE SPRINGFIELD MO
100 AM CDT TUE JUL 25 2017

NOTE: "FAIR" INDICATES FEW OR NO CLOUDS BELOW 12,000 FEET WITH NO
       SIGNIFICANT WEATHER AND/OR OBSTRUCTIONS TO VISIBILITY.
       CURRENT SKY AND/OR WEATHER CONDITIONS ARE NOT AVAILABLE FOR
       CHILLICOTHE AND FARMINGTON.

MOZ001>031-035>038-043-044-053-054-250700-
...NORTHERN AND WESTERN MISSOURI...

CITY           SKY/WX    TMP DP  RH WIND       PRES   REMARKS
KANSAS CTY INT CLEAR     75  67  76 SE12      30.04R
6HR MIN TEMP:  74; 6HR MAX TEMP:  85;

LEE`S SUMMIT   CLEAR     73  69  87 E6        30.06R
6HR MIN TEMP:  72; 6HR MAX TEMP:  84;

ST JOSEPH      CLEAR     74  68  81 SE6       30.04R
6HR MIN TEMP:  74; 6HR MAX TEMP:  85;

CHILLICOTHE      N/A     69  66  90 CALM      30.08R
6HR MIN TEMP:  67; 6HR MAX TEMP:  84;


$$
MOZ066>068-077>081-088>096-101>105-250700-
...SOUTHWEST MISSOURI...

CITY           SKY/WX    TMP DP  RH WIND       PRES   REMARKS
SPRINGFIELD    CLEAR     78  71  79 NE6       30.05R
6HR MIN TEMP:  75; 6HR MAX TEMP:  85;


$$
MOZ032>034-039>042-045>050-055>058-069>072-250700-
...CENTRAL MISSOURI...

CITY           SKY/WX    TMP DP  RH WIND       PRES   REMARKS
COLUMBIA       NOT AVBL
JEFFERSON CITY CLEAR     73  68  84 CALM      30.04R
6HR MIN TEMP:  72; 6HR MAX TEMP:  87;

ROLLA          PTCLDY    74  65  73 E8        30.05R
6HR MIN TEMP:  73; 6HR MAX TEMP:  86;

SEDALIA        CLEAR     71  69  93 E3        30.07R
6HR MIN TEMP:  71; 6HR MAX TEMP:  84;

WARRENSBURG    CLEAR     68  64  88 NE3       30.05S

$$
MOZ051-052-059>065-250700-
...EAST CENTRAL MISSOURI...

CITY           SKY/WX    TMP DP  RH WIND       PRES   REMARKS
ST LOUIS INTL  CLEAR     77  67  71 E9        30.06R
6HR MIN TEMP:  77; 6HR MAX TEMP:  87;


$$
MOZ072>076-082>087-097>100-106>115-250700-
...SOUTH CENTRAL AND SOUTHEAST MISSOURI...

CITY           SKY/WX    TMP DP  RH WIND       PRES   REMARKS
CAPE GIRARDEAU CLOUDY    76  71  85 CALM      30.01R
6HR MIN TEMP:  75; 6HR MAX TEMP:  85;

POPLAR BLUFF   PTCLDY    79  78  97 CALM      29.99R
6HR MIN TEMP:  79; 6HR MAX TEMP:  87;

WEST PLAINS    PTCLDY    75  72  90 CALM      30.05R
6HR MIN TEMP:  75; 6HR MAX TEMP:  88;


$$


USA.gov is the U.S. government's official web portal to all federal, state and local government web resources and services.